ISS - Orbit

View from above orbital plane
View from above orbital plane
View from above satellite
View from above satellite

Ground track
Ground track

The orbit data is extracted from the following two-line orbital elements,

1 25544U 98067A   13169.52482639  .00008679  00000-0  15494-3 0   299
2 25544 051.6485 101.7049 0010800 082.2368 267.3671 15.50860361834902
Epoch (UTC): 18 June 2013 12:35:45
Eccentricity: 0.0010800
inclination: 51.6485°
perigee height: 407 km
apogee height: 421 km
right ascension of ascending node: 101.7049°
argument of perigee: 82.2368°
revolutions per day: 15.50860361
mean anomaly at epoch: 267.3671°
orbit number at epoch: 83490

The dashed part of the orbit path shows where the satellite is in the earth's shadow,  

Developed and maintained by Chris Peat, Heavens-Above GmbH. Please read the updated FAQ before sending e-mail. Imprint. DLR